星链-6149 (STARLINK-6149 )

导读 | 星芒AI

STARLINK-6149 是 SpaceX Starlink 项目中的一颗低轨通信卫星,属于第 14 批组网发射的“星链”卫星之一。该卫星主要用于提供全球宽带互联网服务,支持偏远地区的网络接入。它运行在约 550 公里的近地轨道,采用先进通信技术,具备高带宽和低延迟特性。Starlink 卫星群由数千颗卫星组成,旨在构建覆盖全球的高速互联网网络。STARLINK-6149 的发射和运行有助于提升 Starlink 网络的稳定性和覆盖范围。

基本信息
目录编号:
57122
目录名称:
STARLINK-6149
国际标识:
2023-090X
轨道中心:
EARTH
卫星名称:
星链-6149
卫星全名:
星链-6149 (STARLINK-6149 )
卫星状态:
在轨 (已飞行865 天)
发射日期:
2023-06-23 UTC
国别 :
美国 (US)
星等 :
--
轨道信息
数据来源 国际轨道数据
星历时间: 2025-11-02T10:28:49+0800
1天前
查看轨道信息
半长轴: 6937.225km
偏心率: 0.0000829
轨道倾角: 43.001°
近地点辐角 279.077°
升交点赤经 247.696°
平近点角 80.998°
近地点: 558.514km
远地点: 559.666km
周期: 95.838分钟
每日圈数: 15.025333
详细信息
固有亮度:
5
最大亮度:
2.4
卫星平台:
Starlink v1.5
覆盖范围:
全球
运营商:
太空探索技术公司
运营商所在国:
美国
制造商(研发单位):
太空探索技术公司
制造商所在国:
美国
使用方式:
暂无
卫星简介
星链(Starlink)计划是由太空探索技术公司(SpaceX)提出的一个巨型低轨卫星互联网星座项目,计划在2019年至2024年间在太空搭建由约1.2万颗卫星组成的“星链”网络,其中1584颗将部署在地球上空550千米处的近地轨道,并从2020年开始工作。该卫星仍在工作。
2D轨道图
3D轨道图
轨道高度分析图
轨道倾角分析图
轨道综合分析图
查看轨道综合分析图